Regional Weather Roundup
Issued by NWS

Home | Current Version | Previous Version | Graphics & Text | Print | Product List | Glossary On
Versions: 1 2 3 4 5 6 7 8 9 10 11 12 13 14 15 16 17 18 19 20 21 22 23 24 25 26 27 28 29 30 31 32 33 34 35 36 37 38 39 40 41 42 43 44 45 46 47 48 49 50
000
ASUS43 KIND 181059
RWRIN

WEATHER ROUNDUP FOR INDIANA
NATIONAL WEATHER SERVICE INDIANAPOLIS IN
700 AM EDT FRI APR 18 2014

NOTE: "FAIR" INDICATES FEW OR NO CLOUDS BELOW 12,000 FEET WITH NO
SIGNIFICANT WEATHER AND/OR OBSTRUCTIONS TO VISIBILITY.

* - STATION DOES NOT REPORT WEATHER SUCH AS PRECIPITATION OR FOG.

+ - STATION NOT QUALITY CONTROLLED BY THE NATIONAL WEATHER SERVICE.
    USE DATA WITH CAUTION...ESPECIALLY DEWPOINT AND RELATIVE
    HUMIDITY OBSERVATIONS.

INZ001>003-010>013-019-020-181200-
NORTHWEST INDIANA

CITY           SKY/WX    TMP DP  RH WIND       PRES   REMARKS
GARY /AIRPORT/ PTCLDY    43  37  81 N6        30.28R
VALPARAISO     CLOUDY    46  41  82 SW5       30.27R

$$

LMZ046-743>745-181200-
SOUTHERN LAKE MICHIGAN

STATION/POSITION TIME  TEMP WIND        PRES
                       AIR  DIR/SP/G
                 (UTC) (F)  (DEG/KT/KT) (MB)
MICHIGAN CITY    1000   43  310/  8/ 12   N/A

$$

INZ004-005-014>016-021>024-181200-
NORTH CENTRAL INDIANA

CITY           SKY/WX    TMP DP  RH WIND       PRES   REMARKS
GOSHEN         CLOUDY    49  42  77 SE3       30.26R
SOUTH BEND     CLOUDY    46  43  89 SW5       30.27R

$$

INZ006>009-017-018-025>027-181200-
NORTHEAST INDIANA

CITY           SKY/WX    TMP DP  RH WIND       PRES   REMARKS
ANGOLA *+      MOCLDY    46  43  87 CALM      30.26R
FORT WAYNE     CLOUDY    43  36  76 S3        30.27S

$$

INZ028-029-035-036-043>045-051>053-181200-
WEST CENTRAL INDIANA

CITY           SKY/WX    TMP DP  RH WIND       PRES   REMARKS
GREENCASTLE +  MOCLDY    43  36  75 NW3       30.27R
LAFAYETTE      CLOUDY    46  41  82 CALM      30.26S
TERRE HAUTE    CLOUDY    44  40  85 CALM      30.27R

$$

INZ030>032-037>040-046>048-054>057-064-065-181200-
CENTRAL INDIANA

CITY           SKY/WX    TMP DP  RH WIND       PRES   REMARKS
INDIANAPOLIS   MOCLDY    45  35  68 E5        30.26F
-EAGLE CREEK   MOCLDY    44  39  82 NW3       30.26S
KOKOMO *+      CLOUDY    43  37  81 SE3       30.27S
MT COMFORT *+  PTCLDY    39  39 100 SE3       30.27S
SHELBYVILLE    CLEAR     40  35  83 CALM      30.27R

$$

INZ033-034-041-042-049-050-058-059-181200-
EAST CENTRAL INDIANA

CITY           SKY/WX    TMP DP  RH WIND       PRES   REMARKS
MUNCIE         PTCLDY    43  35  73 CALM      30.28R

$$

INZ060-061-067>069-081>083-085>088-181200-
SOUTHWEST INDIANA

CITY           SKY/WX    TMP DP  RH WIND       PRES   REMARKS
EVANSVILLE     CLEAR     44  39  82 CALM      30.27S
HUNTINGBURG *+ CLEAR     41  36  81 CALM      30.28R

$$

INZ062-063-066-070>080-084-089>092-181200-
SOUTH CENTRAL AND SOUTHEAST INDIANA

CITY           SKY/WX    TMP DP  RH WIND       PRES   REMARKS
BLOOMINGTON    PTCLDY    38  34  85 CALM      30.27S

$$




USA.gov is the U.S. government's official web portal to all federal, state and local government web resources and services.